Year,Month,Day,Hour,Minute,Value (Times are PST for temperature in C)
2014,07,14,00,00,19.80
2014,07,14,00,01,19.80
2014,07,14,00,02,19.80
2014,07,14,00,03,19.80
2014,07,14,00,04,19.80
2014,07,14,00,05,19.80
2014,07,14,00,06,19.80
2014,07,14,00,07,19.70
2014,07,14,00,08,19.70
2014,07,14,00,09,19.70
2014,07,14,00,10,19.70
2014,07,14,00,11,19.70
2014,07,14,00,12,19.80
2014,07,14,00,13,19.80
2014,07,14,00,14,19.80
2014,07,14,00,15,19.80
2014,07,14,00,16,19.80
2014,07,14,00,17,19.80
2014,07,14,00,18,19.80
2014,07,14,00,19,19.90
2014,07,14,00,20,19.90
2014,07,14,00,21,19.90
2014,07,14,00,22,20.00
2014,07,14,00,23,20.10
2014,07,14,00,24,20.20
2014,07,14,00,25,20.30
2014,07,14,00,26,20.40
2014,07,14,00,27,20.40
2014,07,14,00,28,20.40
2014,07,14,00,29,20.50
2014,07,14,00,30,20.50
2014,07,14,00,31,20.60
2014,07,14,00,32,20.60
2014,07,14,00,33,20.60
2014,07,14,00,34,20.70
2014,07,14,00,35,20.70
2014,07,14,00,36,20.60
2014,07,14,00,37,20.50
2014,07,14,00,38,20.40
2014,07,14,00,39,20.20
2014,07,14,00,40,20.10
2014,07,14,00,41,19.90
2014,07,14,00,42,19.80
2014,07,14,00,43,19.70
2014,07,14,00,44,19.50
2014,07,14,00,45,19.40
2014,07,14,00,46,19.20
2014,07,14,00,47,19.10
2014,07,14,00,48,19.00
2014,07,14,00,49,18.80
2014,07,14,00,50,18.80
2014,07,14,00,51,18.70
2014,07,14,00,52,18.60
2014,07,14,00,53,18.60
2014,07,14,00,54,18.60
2014,07,14,00,55,18.50
2014,07,14,00,56,18.50
2014,07,14,00,57,18.50
2014,07,14,00,58,18.50
2014,07,14,00,59,18.50
2014,07,14,01,00,18.50
2014,07,14,01,01,18.50
2014,07,14,01,02,18.50
2014,07,14,01,03,18.60
2014,07,14,01,04,18.60
2014,07,14,01,05,18.60
2014,07,14,01,06,18.60
2014,07,14,01,07,18.60
2014,07,14,01,08,18.70
2014,07,14,01,09,18.70
2014,07,14,01,10,18.70
2014,07,14,01,11,18.70
2014,07,14,01,12,18.70
2014,07,14,01,13,18.70
2014,07,14,01,14,18.70
2014,07,14,01,15,18.70
2014,07,14,01,16,18.70
2014,07,14,01,17,18.70
2014,07,14,01,18,18.70
2014,07,14,01,19,18.70
2014,07,14,01,20,18.70
2014,07,14,01,21,18.60
2014,07,14,01,22,18.60
2014,07,14,01,23,18.60
2014,07,14,01,24,18.60
2014,07,14,01,25,18.60
2014,07,14,01,26,18.60
2014,07,14,01,27,18.70
2014,07,14,01,28,18.70
2014,07,14,01,29,18.70
2014,07,14,01,30,18.70
2014,07,14,01,31,18.70
2014,07,14,01,32,18.70
2014,07,14,01,33,18.70
2014,07,14,01,34,18.70
2014,07,14,01,35,18.70
2014,07,14,01,36,18.80
2014,07,14,01,37,18.80
2014,07,14,01,38,18.80
2014,07,14,01,39,18.80
2014,07,14,01,40,18.80
2014,07,14,01,41,18.80
2014,07,14,01,42,18.80
2014,07,14,01,43,18.80
2014,07,14,01,44,18.80
2014,07,14,01,45,18.80
2014,07,14,01,46,18.80
2014,07,14,01,47,18.80
2014,07,14,01,48,18.80
2014,07,14,01,49,18.80
2014,07,14,01,50,18.70
2014,07,14,01,51,18.70
2014,07,14,01,52,18.70
2014,07,14,01,53,18.60
2014,07,14,01,54,18.60
2014,07,14,01,55,18.60
2014,07,14,01,56,18.60
2014,07,14,01,57,18.60
2014,07,14,01,58,18.50
2014,07,14,01,59,18.50
2014,07,14,02,00,18.50
2014,07,14,02,01,18.50
2014,07,14,02,02,18.50
2014,07,14,02,03,18.50
2014,07,14,02,04,18.50
2014,07,14,02,05,18.40
2014,07,14,02,06,18.40
2014,07,14,02,07,18.40
2014,07,14,02,08,18.40
2014,07,14,02,09,18.40
2014,07,14,02,10,18.40
2014,07,14,02,11,18.30
2014,07,14,02,12,18.30
2014,07,14,02,13,18.30
2014,07,14,02,14,18.30
2014,07,14,02,15,18.30
2014,07,14,02,16,18.30
2014,07,14,02,17,18.20
2014,07,14,02,18,18.20
2014,07,14,02,19,18.20
2014,07,14,02,20,18.10
2014,07,14,02,21,18.10
2014,07,14,02,22,18.10
2014,07,14,02,23,18.00
2014,07,14,02,24,18.00
2014,07,14,02,25,18.00
2014,07,14,02,26,17.90
2014,07,14,02,27,17.80
2014,07,14,02,28,17.80
2014,07,14,02,29,17.70
2014,07,14,02,30,17.60
2014,07,14,02,31,17.60
2014,07,14,02,32,17.50
2014,07,14,02,33,17.50
2014,07,14,02,34,17.40
2014,07,14,02,35,17.30
2014,07,14,02,36,17.30
2014,07,14,02,37,17.20
2014,07,14,02,38,17.20
2014,07,14,02,39,17.10
2014,07,14,02,40,17.10
2014,07,14,02,41,17.00
2014,07,14,02,42,16.90
2014,07,14,02,43,16.90
2014,07,14,02,44,16.90
2014,07,14,02,45,16.80
2014,07,14,02,46,16.80
2014,07,14,02,47,16.80
2014,07,14,02,48,16.70
2014,07,14,02,49,16.70
2014,07,14,02,50,16.70
2014,07,14,02,51,16.60
2014,07,14,02,52,16.60
2014,07,14,02,53,16.60
2014,07,14,02,54,16.60
2014,07,14,02,55,16.50
2014,07,14,02,56,16.50
2014,07,14,02,57,16.50
2014,07,14,02,58,16.40
2014,07,14,02,59,16.40
2014,07,14,03,00,16.40
2014,07,14,03,01,16.30
2014,07,14,03,02,16.30
2014,07,14,03,03,16.30
2014,07,14,03,04,16.30
2014,07,14,03,05,16.30
2014,07,14,03,06,16.30
2014,07,14,03,07,16.30
2014,07,14,03,08,16.20
2014,07,14,03,09,16.20
2014,07,14,03,10,16.20
2014,07,14,03,11,16.20
2014,07,14,03,12,16.20
2014,07,14,03,13,16.20
2014,07,14,03,14,16.20
2014,07,14,03,15,16.10
2014,07,14,03,16,16.10
2014,07,14,03,17,16.10
2014,07,14,03,18,16.10
2014,07,14,03,19,16.00
2014,07,14,03,20,16.00
2014,07,14,03,21,16.00
2014,07,14,03,22,16.00
2014,07,14,03,23,16.00
2014,07,14,03,24,16.00
2014,07,14,03,25,16.00
2014,07,14,03,26,16.00
2014,07,14,03,27,16.00
2014,07,14,03,28,15.90
2014,07,14,03,29,15.90
2014,07,14,03,30,15.90
2014,07,14,03,31,15.90
2014,07,14,03,32,15.90
2014,07,14,03,33,15.90
2014,07,14,03,34,15.90
2014,07,14,03,35,15.90
2014,07,14,03,36,15.80
2014,07,14,03,37,15.80
2014,07,14,03,38,15.80
2014,07,14,03,39,15.80
2014,07,14,03,40,15.80
2014,07,14,03,41,15.80
2014,07,14,03,42,15.80
2014,07,14,03,43,15.70
2014,07,14,03,44,15.70
2014,07,14,03,45,15.70
2014,07,14,03,46,15.70
2014,07,14,03,47,15.70
2014,07,14,03,48,15.70
2014,07,14,03,49,15.60
2014,07,14,03,50,15.60
2014,07,14,03,51,15.60
2014,07,14,03,52,15.60
2014,07,14,03,53,15.50
2014,07,14,03,54,15.50
2014,07,14,03,55,15.50
2014,07,14,03,56,15.50
2014,07,14,03,57,15.40
2014,07,14,03,58,15.40
2014,07,14,03,59,15.40
2014,07,14,04,00,15.40
2014,07,14,04,01,15.30
2014,07,14,04,02,15.30
2014,07,14,04,03,15.30
2014,07,14,04,04,15.30
2014,07,14,04,05,15.20
2014,07,14,04,06,15.20
2014,07,14,04,07,15.20
2014,07,14,04,08,15.10
2014,07,14,04,09,15.10
2014,07,14,04,10,15.10
2014,07,14,04,11,15.00
2014,07,14,04,12,15.00
2014,07,14,04,13,15.00
2014,07,14,04,14,14.90
2014,07,14,04,15,14.90
2014,07,14,04,16,14.90
2014,07,14,04,17,14.90
2014,07,14,04,18,14.90
2014,07,14,04,19,14.80
2014,07,14,04,20,14.80
2014,07,14,04,21,14.70
2014,07,14,04,22,14.70
2014,07,14,04,23,14.60
2014,07,14,04,24,14.50
2014,07,14,04,25,14.40
2014,07,14,04,26,14.30
2014,07,14,04,27,14.30
2014,07,14,04,28,14.20
2014,07,14,04,29,14.10
2014,07,14,04,30,14.10
2014,07,14,04,31,14.00
2014,07,14,04,32,13.90
2014,07,14,04,33,13.90
2014,07,14,04,34,13.80
2014,07,14,04,35,13.80
2014,07,14,04,36,13.70
2014,07,14,04,37,13.70
2014,07,14,04,38,13.60
2014,07,14,04,39,13.60
2014,07,14,04,40,13.50
2014,07,14,04,41,13.50
2014,07,14,04,42,13.50
2014,07,14,04,43,13.40
2014,07,14,04,44,13.40
2014,07,14,04,45,13.40
2014,07,14,04,46,13.30
2014,07,14,04,47,13.30
2014,07,14,04,48,13.30
2014,07,14,04,49,13.20
2014,07,14,04,50,13.20
2014,07,14,04,51,13.20
2014,07,14,04,52,13.20
2014,07,14,04,53,13.10
2014,07,14,04,54,13.10
2014,07,14,04,55,13.10
2014,07,14,04,56,13.10
2014,07,14,04,57,13.00
2014,07,14,04,58,13.00
2014,07,14,04,59,13.00
2014,07,14,05,00,13.00
2014,07,14,05,01,13.00
2014,07,14,05,02,13.00
2014,07,14,05,03,12.90
2014,07,14,05,04,12.90
2014,07,14,05,05,12.90
2014,07,14,05,06,12.90
2014,07,14,05,07,12.90
2014,07,14,05,08,12.90
2014,07,14,05,09,12.90
2014,07,14,05,10,12.90
2014,07,14,05,11,12.90
2014,07,14,05,12,12.90
2014,07,14,05,13,12.90
2014,07,14,05,14,12.90
2014,07,14,05,15,12.90
2014,07,14,05,16,12.80
2014,07,14,05,17,12.80
2014,07,14,05,18,12.80
2014,07,14,05,19,12.90
2014,07,14,05,20,12.90
2014,07,14,05,21,12.90
2014,07,14,05,22,12.90
2014,07,14,05,23,12.90
2014,07,14,05,24,12.90
2014,07,14,05,25,12.90
2014,07,14,05,26,13.00
2014,07,14,05,27,13.00
2014,07,14,05,28,13.00
2014,07,14,05,29,13.00
2014,07,14,05,30,13.00
2014,07,14,05,31,13.10
2014,07,14,05,32,13.10
2014,07,14,05,33,13.10
2014,07,14,05,34,13.10
2014,07,14,05,35,13.10
2014,07,14,05,36,13.10
2014,07,14,05,37,13.10
2014,07,14,05,38,13.10
2014,07,14,05,39,13.10
2014,07,14,05,40,13.10
2014,07,14,05,41,13.10
2014,07,14,05,42,13.10
2014,07,14,05,43,13.10
2014,07,14,05,44,13.10
2014,07,14,05,45,13.10
2014,07,14,05,46,13.10
2014,07,14,05,47,13.10
2014,07,14,05,48,13.10
2014,07,14,05,49,13.10
2014,07,14,05,50,13.10
2014,07,14,05,51,13.10
2014,07,14,05,52,13.10
2014,07,14,05,53,13.10
2014,07,14,05,54,13.10
2014,07,14,05,55,13.10
2014,07,14,05,56,13.10
2014,07,14,05,57,13.10
2014,07,14,05,58,13.10
2014,07,14,05,59,13.20
2014,07,14,06,00,13.20
2014,07,14,06,01,13.20
2014,07,14,06,02,13.20
2014,07,14,06,03,13.30
2014,07,14,06,04,13.30
2014,07,14,06,05,13.30
2014,07,14,06,06,13.30
2014,07,14,06,07,13.30
2014,07,14,06,08,13.30
2014,07,14,06,09,13.40
2014,07,14,06,10,13.40
2014,07,14,06,11,13.40
2014,07,14,06,12,13.40
2014,07,14,06,13,13.50
2014,07,14,06,14,13.50
2014,07,14,06,15,13.60
2014,07,14,06,16,13.60
2014,07,14,06,17,13.60
2014,07,14,06,18,13.70
2014,07,14,06,19,13.70
2014,07,14,06,20,13.80
2014,07,14,06,21,13.80
2014,07,14,06,22,13.80
2014,07,14,06,23,13.80
2014,07,14,06,24,13.80
2014,07,14,06,25,13.80
2014,07,14,06,26,13.90
2014,07,14,06,27,13.90
2014,07,14,06,28,13.90
2014,07,14,06,29,13.90
2014,07,14,06,30,13.90
2014,07,14,06,31,13.90
2014,07,14,06,32,13.90
2014,07,14,06,33,13.90
2014,07,14,06,34,13.90
2014,07,14,06,35,13.90
2014,07,14,06,36,13.90
2014,07,14,06,37,13.90
2014,07,14,06,38,13.90
2014,07,14,06,39,13.90
2014,07,14,06,40,13.90
2014,07,14,06,41,13.90
2014,07,14,06,42,13.90
2014,07,14,06,43,13.90
2014,07,14,06,44,14.00
2014,07,14,06,45,14.00
2014,07,14,06,46,14.00
2014,07,14,06,47,14.10
2014,07,14,06,48,14.10
2014,07,14,06,49,14.10
2014,07,14,06,50,14.10
2014,07,14,06,51,14.20
2014,07,14,06,52,14.20
2014,07,14,06,53,14.20
2014,07,14,06,54,14.20
2014,07,14,06,55,14.30
2014,07,14,06,56,14.30
2014,07,14,06,57,14.30
2014,07,14,06,58,14.30
2014,07,14,06,59,14.30
2014,07,14,07,00,14.40
2014,07,14,07,01,14.40
2014,07,14,07,02,14.40
2014,07,14,07,03,14.40
2014,07,14,07,04,14.50
2014,07,14,07,05,14.50
2014,07,14,07,06,14.50
2014,07,14,07,07,14.60
2014,07,14,07,08,14.60
2014,07,14,07,09,14.70
2014,07,14,07,10,14.80
2014,07,14,07,11,14.80
2014,07,14,07,12,14.80
2014,07,14,07,13,14.80
2014,07,14,07,14,14.80
2014,07,14,07,15,14.80
2014,07,14,07,16,14.90
2014,07,14,07,17,14.90
2014,07,14,07,18,15.00
2014,07,14,07,19,15.10
2014,07,14,07,20,15.10
2014,07,14,07,21,15.20
2014,07,14,07,22,15.30
2014,07,14,07,23,15.30
2014,07,14,07,24,15.40
2014,07,14,07,25,15.40
2014,07,14,07,26,15.50
2014,07,14,07,27,15.50
2014,07,14,07,28,15.60
2014,07,14,07,29,15.60
2014,07,14,07,30,15.60
2014,07,14,07,31,15.60
2014,07,14,07,32,15.60
2014,07,14,07,33,15.60
2014,07,14,07,34,15.60
2014,07,14,07,35,15.60
2014,07,14,07,36,15.60
2014,07,14,07,37,15.60
2014,07,14,07,38,15.60
2014,07,14,07,39,15.60
2014,07,14,07,40,15.70
2014,07,14,07,41,15.70
2014,07,14,07,42,15.70
2014,07,14,07,43,15.70
2014,07,14,07,44,15.80
2014,07,14,07,45,15.80
2014,07,14,07,46,15.80
2014,07,14,07,47,15.90
2014,07,14,07,48,15.90
2014,07,14,07,49,16.00
2014,07,14,07,50,16.10
2014,07,14,07,51,16.20
2014,07,14,07,52,16.20
2014,07,14,07,53,16.30
2014,07,14,07,54,16.40
2014,07,14,07,55,16.40
2014,07,14,07,56,16.50
2014,07,14,07,57,16.50
2014,07,14,07,58,16.60
2014,07,14,07,59,16.70
2014,07,14,08,00,16.70
2014,07,14,08,01,16.80
2014,07,14,08,02,16.80
2014,07,14,08,03,16.80
2014,07,14,08,04,16.90
2014,07,14,08,05,16.90
2014,07,14,08,06,17.00
2014,07,14,08,07,17.10
2014,07,14,08,08,17.10
2014,07,14,08,09,17.20
2014,07,14,08,10,17.30
2014,07,14,08,11,17.30
2014,07,14,08,12,17.40
2014,07,14,08,13,17.40
2014,07,14,08,14,17.50
2014,07,14,08,15,17.50
2014,07,14,08,16,17.60
2014,07,14,08,17,17.60
2014,07,14,08,18,17.60
2014,07,14,08,19,17.60
2014,07,14,08,20,17.60
2014,07,14,08,21,17.70
2014,07,14,08,22,17.70
2014,07,14,08,23,17.80
2014,07,14,08,24,17.90
2014,07,14,08,25,18.00
2014,07,14,08,26,18.10
2014,07,14,08,27,18.20
2014,07,14,08,28,18.30
2014,07,14,08,29,18.40
2014,07,14,08,30,18.50
2014,07,14,08,31,18.50
2014,07,14,08,32,18.50
2014,07,14,08,33,18.60
2014,07,14,08,34,18.60
2014,07,14,08,35,18.60
2014,07,14,08,36,18.70
2014,07,14,08,37,18.70
2014,07,14,08,38,18.70
2014,07,14,08,39,18.70
2014,07,14,08,40,18.70
2014,07,14,08,41,18.70
2014,07,14,08,42,18.80
2014,07,14,08,43,18.80
2014,07,14,08,44,18.80
2014,07,14,08,45,18.80
2014,07,14,08,46,18.80
2014,07,14,08,47,18.70
2014,07,14,08,48,18.60
2014,07,14,08,49,18.60
2014,07,14,08,50,18.50
2014,07,14,08,51,18.40
2014,07,14,08,52,18.30
2014,07,14,08,53,18.30
2014,07,14,08,54,18.30
2014,07,14,08,55,18.40
2014,07,14,08,56,18.40
2014,07,14,08,57,18.50
2014,07,14,08,58,18.50
2014,07,14,08,59,18.60
2014,07,14,09,00,18.70
2014,07,14,09,01,18.70
2014,07,14,09,02,18.70
2014,07,14,09,03,18.70
2014,07,14,09,04,18.70
2014,07,14,09,05,18.70
2014,07,14,09,06,18.80
2014,07,14,09,07,18.80
2014,07,14,09,08,18.90
2014,07,14,09,09,19.00
2014,07,14,09,10,19.00
2014,07,14,09,11,19.10
2014,07,14,09,12,19.10
2014,07,14,09,13,19.10
2014,07,14,09,14,19.10
2014,07,14,09,15,19.10
2014,07,14,09,16,19.10
2014,07,14,09,17,19.10
2014,07,14,09,18,19.10
2014,07,14,09,19,19.10
2014,07,14,09,20,19.20
2014,07,14,09,21,19.20
2014,07,14,09,22,19.30
2014,07,14,09,23,19.40
2014,07,14,09,24,19.50
2014,07,14,09,25,19.50
2014,07,14,09,26,19.60
2014,07,14,09,27,19.60
2014,07,14,09,28,19.60
2014,07,14,09,29,19.60
2014,07,14,09,30,19.60
2014,07,14,09,31,19.50
2014,07,14,09,32,19.50
2014,07,14,09,33,19.50
2014,07,14,09,34,19.50
2014,07,14,09,35,19.50
2014,07,14,09,36,19.60
2014,07,14,09,37,19.80
2014,07,14,09,38,19.90
2014,07,14,09,39,20.10
2014,07,14,09,40,20.30
2014,07,14,09,41,20.40
2014,07,14,09,42,20.40
2014,07,14,09,43,20.50
2014,07,14,09,44,20.60
2014,07,14,09,45,20.60
2014,07,14,09,46,20.70
2014,07,14,09,47,20.80
2014,07,14,09,48,20.80
2014,07,14,09,49,20.80
2014,07,14,09,50,20.90
2014,07,14,09,51,21.00
2014,07,14,09,52,21.10
2014,07,14,09,53,21.20
2014,07,14,09,54,21.20
2014,07,14,09,55,21.30
2014,07,14,09,56,21.40
2014,07,14,09,57,21.50
2014,07,14,09,58,21.50
2014,07,14,09,59,21.60
2014,07,14,10,00,21.50
2014,07,14,10,01,21.50
2014,07,14,10,02,21.60
2014,07,14,10,03,21.60
2014,07,14,10,04,21.60
2014,07,14,10,05,21.60
2014,07,14,10,06,21.60
2014,07,14,10,07,21.60
2014,07,14,10,08,21.70
2014,07,14,10,09,21.70
2014,07,14,10,10,21.80
2014,07,14,10,11,21.80
2014,07,14,10,12,21.70
2014,07,14,10,13,21.70
2014,07,14,10,14,21.60
2014,07,14,10,15,21.60
2014,07,14,10,16,21.50
2014,07,14,10,17,21.40
2014,07,14,10,18,21.30
2014,07,14,10,19,21.20
2014,07,14,10,20,21.20
2014,07,14,10,21,21.20
2014,07,14,10,22,21.20
2014,07,14,10,23,21.20
2014,07,14,10,24,21.30
2014,07,14,10,25,21.30
2014,07,14,10,26,21.30
2014,07,14,10,27,21.40
2014,07,14,10,28,21.50
2014,07,14,10,29,21.60
2014,07,14,10,30,21.80
2014,07,14,10,31,21.90
2014,07,14,10,32,22.00
2014,07,14,10,33,22.20
2014,07,14,10,34,22.30
2014,07,14,10,35,22.50
2014,07,14,10,36,22.60
2014,07,14,10,37,22.70
2014,07,14,10,38,22.90
2014,07,14,10,39,22.90
2014,07,14,10,40,22.90
2014,07,14,10,41,23.00
2014,07,14,10,42,23.10
2014,07,14,10,43,23.20
2014,07,14,10,44,23.30
2014,07,14,10,45,23.40
2014,07,14,10,46,23.40
2014,07,14,10,47,23.40
2014,07,14,10,48,23.30
2014,07,14,10,49,23.30
2014,07,14,10,50,23.20
2014,07,14,10,51,23.20
2014,07,14,10,52,23.20
2014,07,14,10,53,23.20
2014,07,14,10,54,23.30
2014,07,14,10,55,23.40
2014,07,14,10,56,23.60
2014,07,14,10,57,23.70
2014,07,14,10,58,23.90
2014,07,14,10,59,24.00
2014,07,14,11,00,24.10
2014,07,14,11,01,24.20
2014,07,14,11,02,24.20
2014,07,14,11,03,24.20
2014,07,14,11,04,24.20
2014,07,14,11,05,24.10
2014,07,14,11,06,24.10
2014,07,14,11,07,24.00
2014,07,14,11,08,23.90
2014,07,14,11,09,23.90
2014,07,14,11,10,23.90
2014,07,14,11,11,23.90
2014,07,14,11,12,23.90
2014,07,14,11,13,23.90
2014,07,14,11,14,23.90
2014,07,14,11,15,23.90
2014,07,14,11,16,24.00
2014,07,14,11,17,24.00
2014,07,14,11,18,24.10
2014,07,14,11,19,24.10
2014,07,14,11,20,24.20
2014,07,14,11,21,24.10
2014,07,14,11,22,24.10
2014,07,14,11,23,24.10
2014,07,14,11,24,24.10
2014,07,14,11,25,24.10
2014,07,14,11,26,24.10
2014,07,14,11,27,24.10
2014,07,14,11,28,24.10
2014,07,14,11,29,24.10
2014,07,14,11,30,24.20
2014,07,14,11,31,24.20
2014,07,14,11,32,24.20
2014,07,14,11,33,24.20
2014,07,14,11,34,24.30
2014,07,14,11,35,24.40
2014,07,14,11,36,24.40
2014,07,14,11,37,24.40
2014,07,14,11,38,24.40
2014,07,14,11,39,24.30
2014,07,14,11,40,24.10
2014,07,14,11,41,23.90
2014,07,14,11,42,23.80
2014,07,14,11,43,23.60
2014,07,14,11,44,23.50
2014,07,14,11,45,23.40
2014,07,14,11,46,23.40
2014,07,14,11,47,23.30
2014,07,14,11,48,23.10
2014,07,14,11,49,23.00
2014,07,14,11,50,23.00
2014,07,14,11,51,23.00
2014,07,14,11,52,23.10
2014,07,14,11,53,23.20
2014,07,14,11,54,23.30
2014,07,14,11,55,23.30
2014,07,14,11,56,23.30
2014,07,14,11,57,23.40
2014,07,14,11,58,23.40
2014,07,14,11,59,23.40
2014,07,14,12,00,23.40
2014,07,14,12,01,23.30
2014,07,14,12,02,23.30
2014,07,14,12,03,23.20
2014,07,14,12,04,23.10
2014,07,14,12,05,23.00
2014,07,14,12,06,22.90
2014,07,14,12,07,22.90
2014,07,14,12,08,22.80
2014,07,14,12,09,22.80
2014,07,14,12,10,22.80
2014,07,14,12,11,22.80
2014,07,14,12,12,22.80
2014,07,14,12,13,22.80
2014,07,14,12,14,22.80
2014,07,14,12,15,22.80
2014,07,14,12,16,22.70
2014,07,14,12,17,22.70
2014,07,14,12,18,22.70
2014,07,14,12,19,22.60
2014,07,14,12,20,22.60
2014,07,14,12,21,22.60
2014,07,14,12,22,22.60
2014,07,14,12,23,22.60
2014,07,14,12,24,22.60
2014,07,14,12,25,22.50
2014,07,14,12,26,22.60
2014,07,14,12,27,22.60
2014,07,14,12,28,22.50
2014,07,14,12,29,22.40
2014,07,14,12,30,22.40
2014,07,14,12,31,22.30
2014,07,14,12,32,22.20
2014,07,14,12,33,22.10
2014,07,14,12,34,22.00
2014,07,14,12,35,21.90
2014,07,14,12,36,22.00
2014,07,14,12,37,22.00
2014,07,14,12,38,22.10
2014,07,14,12,39,22.10
2014,07,14,12,40,22.10
2014,07,14,12,41,22.10
2014,07,14,12,42,22.10
2014,07,14,12,43,22.20
2014,07,14,12,44,22.30
2014,07,14,12,45,22.30
2014,07,14,12,46,22.40
2014,07,14,12,47,22.50
2014,07,14,12,48,22.60
2014,07,14,12,49,22.60
2014,07,14,12,50,22.60
2014,07,14,12,51,22.70
2014,07,14,12,52,22.80
2014,07,14,12,53,22.90
2014,07,14,12,54,22.90
2014,07,14,12,55,23.00
2014,07,14,12,56,23.00
2014,07,14,12,57,23.00
2014,07,14,12,58,23.10
2014,07,14,12,59,23.10
2014,07,14,13,00,23.20
2014,07,14,13,01,23.30
2014,07,14,13,02,23.40
2014,07,14,13,03,23.40
2014,07,14,13,04,23.50
2014,07,14,13,05,23.50
2014,07,14,13,06,23.40
2014,07,14,13,07,23.40
2014,07,14,13,08,23.30
2014,07,14,13,09,23.20
2014,07,14,13,10,23.20
2014,07,14,13,11,23.20
2014,07,14,13,12,23.10
2014,07,14,13,13,23.00
2014,07,14,13,14,23.00
2014,07,14,13,15,22.90
2014,07,14,13,16,22.80
2014,07,14,13,17,22.80
2014,07,14,13,18,22.90
2014,07,14,13,19,23.00
2014,07,14,13,20,23.10
2014,07,14,13,21,23.30
2014,07,14,13,22,23.40
2014,07,14,13,23,23.40
2014,07,14,13,24,23.50
2014,07,14,13,25,23.70
2014,07,14,13,26,23.70
2014,07,14,13,27,23.80
2014,07,14,13,28,23.80
2014,07,14,13,29,23.80
2014,07,14,13,30,23.80
2014,07,14,13,31,23.80
2014,07,14,13,32,23.90
2014,07,14,13,33,24.00
2014,07,14,13,34,23.90
2014,07,14,13,35,23.90
2014,07,14,13,36,23.80
2014,07,14,13,37,23.70
2014,07,14,13,38,23.60
2014,07,14,13,39,23.60
2014,07,14,13,40,23.70
2014,07,14,13,41,23.70
2014,07,14,13,42,23.70
2014,07,14,13,43,23.60
2014,07,14,13,44,23.60
2014,07,14,13,45,23.60
2014,07,14,13,46,23.60
2014,07,14,13,47,23.60
2014,07,14,13,48,23.50
2014,07,14,13,49,23.50
2014,07,14,13,50,23.50
2014,07,14,13,51,23.50
2014,07,14,13,52,23.60
2014,07,14,13,53,23.70
2014,07,14,13,54,23.80
2014,07,14,13,55,23.90
2014,07,14,13,56,24.00
2014,07,14,13,57,24.00
2014,07,14,13,58,24.00
2014,07,14,13,59,24.00
2014,07,14,14,00,24.10
2014,07,14,14,01,24.20
2014,07,14,14,02,24.30
2014,07,14,14,03,24.30
2014,07,14,14,04,24.30
2014,07,14,14,05,24.30
2014,07,14,14,06,24.30
2014,07,14,14,07,24.20
2014,07,14,14,08,24.10
2014,07,14,14,09,24.10
2014,07,14,14,10,24.10
2014,07,14,14,11,24.20
2014,07,14,14,12,24.30
2014,07,14,14,13,24.30
2014,07,14,14,14,24.40
2014,07,14,14,15,24.50
2014,07,14,14,16,24.60
2014,07,14,14,17,24.70
2014,07,14,14,18,24.80
2014,07,14,14,19,24.90
2014,07,14,14,20,25.00
2014,07,14,14,21,25.10
2014,07,14,14,22,25.10
2014,07,14,14,23,25.20
2014,07,14,14,24,25.20
2014,07,14,14,25,25.10
2014,07,14,14,26,25.10
2014,07,14,14,27,25.10
2014,07,14,14,28,25.10
2014,07,14,14,29,25.10
2014,07,14,14,30,25.20
2014,07,14,14,31,25.20
2014,07,14,14,32,25.10
2014,07,14,14,33,25.00
2014,07,14,14,34,25.00
2014,07,14,14,35,24.90
2014,07,14,14,36,24.80
2014,07,14,14,37,24.80
2014,07,14,14,38,24.70
2014,07,14,14,39,24.80
2014,07,14,14,40,24.80
2014,07,14,14,41,24.80
2014,07,14,14,42,24.90
2014,07,14,14,43,24.90
2014,07,14,14,44,24.80
2014,07,14,14,45,24.70
2014,07,14,14,46,24.70
2014,07,14,14,47,24.70
2014,07,14,14,48,24.60
2014,07,14,14,49,24.60
2014,07,14,14,50,24.70
2014,07,14,14,51,24.70
2014,07,14,14,52,24.70
2014,07,14,14,53,24.60
2014,07,14,14,54,24.60
2014,07,14,14,55,24.60
2014,07,14,14,56,24.60
2014,07,14,14,57,24.60
2014,07,14,14,58,24.60
2014,07,14,14,59,24.50
2014,07,14,15,00,24.40
2014,07,14,15,01,24.40
2014,07,14,15,02,24.30
2014,07,14,15,03,24.30
2014,07,14,15,04,24.20
2014,07,14,15,05,24.20
2014,07,14,15,06,24.10
2014,07,14,15,07,24.10
2014,07,14,15,08,24.10
2014,07,14,15,09,24.10
2014,07,14,15,10,24.00
2014,07,14,15,11,23.90
2014,07,14,15,12,23.80
2014,07,14,15,13,23.70
2014,07,14,15,14,23.60
2014,07,14,15,15,23.50
2014,07,14,15,16,23.30
2014,07,14,15,17,23.20
2014,07,14,15,18,23.20
2014,07,14,15,19,23.20
2014,07,14,15,20,23.20
2014,07,14,15,21,23.30
2014,07,14,15,22,23.30
2014,07,14,15,23,23.30
2014,07,14,15,24,23.20
2014,07,14,15,25,23.10
2014,07,14,15,26,23.10
2014,07,14,15,27,23.00
2014,07,14,15,28,23.00
2014,07,14,15,29,23.00
2014,07,14,15,30,22.90
2014,07,14,15,31,22.90
2014,07,14,15,32,23.00
2014,07,14,15,33,23.10
2014,07,14,15,34,23.20
2014,07,14,15,35,23.30
2014,07,14,15,36,23.20
2014,07,14,15,37,23.30
2014,07,14,15,38,23.30
2014,07,14,15,39,23.20
2014,07,14,15,40,23.10
2014,07,14,15,41,23.00
2014,07,14,15,42,23.00
2014,07,14,15,43,22.90
2014,07,14,15,44,23.00
2014,07,14,15,45,23.00
2014,07,14,15,46,23.10
2014,07,14,15,47,23.20
2014,07,14,15,48,23.20
2014,07,14,15,49,23.20
2014,07,14,15,50,23.20
2014,07,14,15,51,23.20
2014,07,14,15,52,23.20
2014,07,14,15,53,23.30
2014,07,14,15,54,23.30
2014,07,14,15,55,23.30
2014,07,14,15,56,23.40
2014,07,14,15,57,23.40
2014,07,14,15,58,23.40
2014,07,14,15,59,23.40
2014,07,14,16,00,23.50
2014,07,14,16,01,23.50
2014,07,14,16,02,23.60
2014,07,14,16,03,23.60
2014,07,14,16,04,23.60
2014,07,14,16,05,23.50
2014,07,14,16,06,23.50
2014,07,14,16,07,23.40
2014,07,14,16,08,23.40
2014,07,14,16,09,23.40
2014,07,14,16,10,23.30
2014,07,14,16,11,23.20
2014,07,14,16,12,23.10
2014,07,14,16,13,23.00
2014,07,14,16,14,23.00
2014,07,14,16,15,22.90
2014,07,14,16,16,22.90
2014,07,14,16,17,22.90
2014,07,14,16,18,22.90
2014,07,14,16,19,22.80
2014,07,14,16,20,22.80
2014,07,14,16,21,22.70
2014,07,14,16,22,22.70
2014,07,14,16,23,22.70
2014,07,14,16,24,22.60
2014,07,14,16,25,22.70
2014,07,14,16,26,22.70
2014,07,14,16,27,22.70
2014,07,14,16,28,22.60
2014,07,14,16,29,22.60
2014,07,14,16,30,22.50
2014,07,14,16,31,22.40
2014,07,14,16,32,22.50
2014,07,14,16,33,22.50
2014,07,14,16,34,22.60
2014,07,14,16,35,22.60
2014,07,14,16,36,22.60
2014,07,14,16,37,22.60
2014,07,14,16,38,22.60
2014,07,14,16,39,22.50
2014,07,14,16,40,22.50
2014,07,14,16,41,22.40
2014,07,14,16,42,22.40
2014,07,14,16,43,22.30
2014,07,14,16,44,22.20
2014,07,14,16,45,22.20
2014,07,14,16,46,22.20
2014,07,14,16,47,22.10
2014,07,14,16,48,22.10
2014,07,14,16,49,22.10
2014,07,14,16,50,22.00
2014,07,14,16,51,22.00
2014,07,14,16,52,22.00
2014,07,14,16,53,22.00
2014,07,14,16,54,22.00
2014,07,14,16,55,22.00
2014,07,14,16,56,21.90
2014,07,14,16,57,21.80
2014,07,14,16,58,21.80
2014,07,14,16,59,21.70
2014,07,14,17,00,21.60
2014,07,14,17,01,21.60
2014,07,14,17,02,21.50
2014,07,14,17,03,21.50
2014,07,14,17,04,21.40
2014,07,14,17,05,21.30
2014,07,14,17,06,21.20
2014,07,14,17,07,21.10
2014,07,14,17,08,21.10
2014,07,14,17,09,21.10
2014,07,14,17,10,21.10
2014,07,14,17,11,21.10
2014,07,14,17,12,21.10
2014,07,14,17,13,21.00
2014,07,14,17,14,21.00
2014,07,14,17,15,21.00
2014,07,14,17,16,21.00
2014,07,14,17,17,21.00
2014,07,14,17,18,20.90
2014,07,14,17,19,20.80